Powrót do katalogu

THOR ABLESTAR DEB

AktywnyLEO
NORAD 410·DEBRIS·🇺🇸 United States

Wystrzelony Jun 29, 1961 z Cape Canaveral Space Force Station

Loading…

Następne Przeloty (najbliższe 24 godziny)

TLE

ŚwieżeSource: Space-Track

Epoka: Sep 14, 2026, 13:58 UTC

1 00410U 61015EK  26257.58258556  .00000019  00000-0  95176-4 0  9996
2 00410  66.6930 184.8011 0020445 295.4167 239.2336 13.76626195272374

Śledź THOR ABLESTAR DEB w czasie rzeczywistym z AllMySat

Download on the App Store